Regional Weather Roundup
Issued by NWS Green Bay, WI

Home | Current Version | Previous Version | Graphics & Text | Print | Product List | Glossary Off
Versions: 1 2 3 4 5 6 7 8 9 10 11 12 13 14 15 16 17 18 19 20 21 22 23 24 25 26 27 28 29 30 31 32 33 34 35 36 37 38 39 40 41 42 43 44 45 46 47 48 49 50

000
ASUS43 KGRB 280000
RWRGRB

NORTH-CENTRAL AND NORTHEAST WISCONSIN REGIONAL WEATHER ROUNDUP
NATIONAL WEATHER SERVICE GREEN BAY WI
700 PM CDT MON JUL 27 2015

WIZ005-009-010>012-018-019-280100-
NORTH CENTRAL WISCONSIN

CITY           SKY/WX    TMP DP  RH WIND       PRES   REMARKS
IRONWOOD       SUNNY     84  55  37 S5          N/A
MANITOWISH WTR NOT AVBL
ARBOR VITAE    NOT AVBL
EAGLE RIVER    NOT AVBL
LAND O LAKES   NOT AVBL
RHINELANDER    SUNNY     83  59  44 S7        30.03S
PHILLIPS       NOT AVBL
ANTIGO         NOT AVBL
TOMAHAWK       NOT AVBL
MERRILL        NOT AVBL
$$

WIZ013-073-280100-
NORTHEAST WISCONSIN

CITY           SKY/WX    TMP DP  RH WIND       PRES   REMARKS
IRON MOUNTAIN  SUNNY     85  63  47 S8        30.00R
MARINETTE      SUNNY     82  61  47 SW8       29.99S
$$

WIZ017-030-035>037-045-280100-
CENTRAL WISCONSIN

CITY           SKY/WX    TMP DP  RH WIND       PRES   REMARKS
MEDFORD        NOT AVBL
WAUSAU         MOSUNNY   82  62  50 SE12      29.99S
MOSINEE        NOT AVBL
MARSHFIELD     PTSUNNY   82  63  52 SE5       29.99F
WISC RAPIDS    MOSUNNY   83  59  44 S8        29.99S
STEVENS POINT  NOT AVBL
WAUPACA        NOT AVBL
SHAWANO        NOT AVBL
CLINTONVILLE   NOT AVBL
$$

WIZ038-039-048-051-280100-
FOX VALLEY

CITY           SKY/WX    TMP DP  RH WIND       PRES   REMARKS
NWS GREEN BAY  SUNNY     83  63  50 SE8       30.00S
APPLETON       MOSUNNY   82  59  44 SE7         N/A
OSHKOSH        MOSUNNY   83  62  49 SE7       29.99F
FOND DU LAC    SUNNY     82  61  48 SE8       30.00S
$$

WIZ022-050-052-280100-
EAST CENTRAL WISCONSIN

CITY           SKY/WX    TMP DP  RH WIND       PRES   REMARKS
STURGEON BAY   SUNNY     81  61  50 S7        30.03S
MANITOWOC      NOT AVBL
SHEBOYGAN      MOSUNNY   81  63  54 SE3       30.01F
$$

LMZ563-521-522-541>543-280100-
LAKESHORE

STATION/POSITION TIME  TEMP    WIND        PRES    VSBY  WAVE
                       AIR SEA DIR/SP/G                  HT/PER
                 (UTC) (F)     (DEG/KT/KT) (MB)    (MI)  (FT/S)
SHEBOYGAN LKSHOR 2300   76     130/  3/  3 1016.4F
KEWAUNEE LKSHORE 2300   75     160/  3/  3 1016.1F
ALGOMA MARINA    2342             CALM       N/A
N MID LAKE BUOY  2250   73 71  220/  6/  6 1015.6F         0
SISTER BAY LKSHO 2329   85     280/  6/  6   N/A
MENOMINEE LKSHOR 2300   79     150/  5/  6 1016.5F
$$


USA.gov is the U.S. government's official web portal to all federal, state and local government web resources and services.